History for Miami, FL

Sunday, November 18, 2012 — View Current Conditions

Jump to Data:

Date:
Airport Code:
Recently Viewed Airport Codes: KMIA
Daily Summary
  Actual Average Record
Temperature
Mean Temperature 76°F 74°F  
Max Temperature 82°F 81°F 88°F (1903)
Min Temperature 69°F 68°F 42°F (1901)
Degree Days
Heating Degree Days 0 0  
Month to date heating degree days 1 0  
Since 1 July heating degree days 1 0  
Cooling Degree Days 11 10  
Month to date cooling degree days 145 196  
Year to date cooling degree days 4384 4268  
Growing Degree Days 26 (Base 50)    
Moisture
Dew Point 64°F    
Average Humidity 69    
Maximum Humidity 84    
Minimum Humidity 54    
Precipitation
Precipitation 0.00 in 0.11 in 7.56 in (1992)
Month to date precipitation 0.24 2.23  
Year to date precipitation 86.17 58.82  
Snow
Snow 0.00 in in in ()
Month to date snowfall 0.0  
Since 1 July snowfall 0.0  
Since 1 September snowfall 0.0  
Snow Depth 0.00 in    
Sea Level Pressure
Sea Level Pressure 30.07 in    
Wind
Wind Speed 7 mph (North)    
Max Wind Speed 17 mph    
Max Gust Speed 24 mph    
Visibility 10 miles    
Events      
T = Trace of Precipitation, MM = Missing Value Source: NWS Daily Summary

Show full METARS

(help) - Comma Delimited File

Hourly Observations

Time(EST) Temperature Dew Point Humidity Sea Level Pressure Visibility Wind Direction Wind Speed Gust Speed Precipitation Events Conditions
12:53 AM 72.0°F 64.0°F 76% 30.05 in 10.0 miles North 4.6 mph - N/A   Mostly Cloudy
1:53 AM 71.1°F 64.9°F 81% 30.04 in 10.0 miles North 4.6 mph - N/A   Scattered Clouds
2:53 AM 70.0°F 64.0°F 81% 30.04 in 10.0 miles NNW 4.6 mph - N/A   Partly Cloudy
3:53 AM 69.1°F 64.0°F 84% 30.03 in 10.0 miles North 5.8 mph - N/A   Partly Cloudy
4:53 AM 69.1°F 64.0°F 84% 30.04 in 10.0 miles NNW 4.6 mph - N/A   Scattered Clouds
5:53 AM 69.1°F 64.9°F 87% 30.04 in 10.0 miles Calm Calm - N/A   Scattered Clouds
6:53 AM 69.1°F 64.9°F 87% 30.07 in 10.0 miles NW 6.9 mph - N/A   Mostly Cloudy
7:53 AM 71.1°F 66.0°F 84% 30.08 in 10.0 miles NNW 6.9 mph - N/A   Scattered Clouds
8:53 AM 73.9°F 64.9°F 73% 30.10 in 10.0 miles North 6.9 mph - N/A   Scattered Clouds
9:53 AM 78.1°F 66.0°F 66% 30.09 in 10.0 miles NE 10.4 mph 16.1 mph N/A   Scattered Clouds
10:53 AM 78.1°F 66.0°F 66% 30.09 in 10.0 miles NE 9.2 mph 18.4 mph N/A   Scattered Clouds
11:53 AM 81.0°F 64.0°F 56% 30.07 in 10.0 miles NE 12.7 mph 18.4 mph N/A   Mostly Cloudy
12:53 PM 80.1°F 63.0°F 56% 30.06 in 10.0 miles NE 11.5 mph 19.6 mph N/A   Mostly Cloudy
1:53 PM 80.1°F 63.0°F 56% 30.04 in 10.0 miles NE 15.0 mph 21.9 mph N/A   Mostly Cloudy
2:53 PM 79.0°F 63.0°F 58% 30.04 in 10.0 miles NNE 6.9 mph 19.6 mph N/A   Mostly Cloudy
3:53 PM 79.0°F 63.0°F 58% 30.04 in 10.0 miles NNE 10.4 mph 17.3 mph N/A   Mostly Cloudy
4:53 PM 77.0°F 63.0°F 62% 30.05 in 10.0 miles NNE 10.4 mph 17.3 mph N/A   Scattered Clouds
5:53 PM 75.9°F 64.0°F 67% 30.07 in 10.0 miles Variable 4.6 mph - N/A   Scattered Clouds
6:53 PM 75.0°F 64.0°F 69% 30.09 in 10.0 miles North 8.1 mph - N/A   Mostly Cloudy
7:53 PM 73.0°F 64.0°F 73% 30.10 in 10.0 miles NNW 6.9 mph - N/A   Scattered Clouds
8:53 PM 71.1°F 64.0°F 78% 30.12 in 10.0 miles Variable 5.8 mph - N/A   Scattered Clouds
9:53 PM 70.0°F 64.0°F 81% 30.12 in 10.0 miles North 4.6 mph - N/A   Scattered Clouds
10:53 PM 69.1°F 64.0°F 84% 30.11 in 10.0 miles North 5.8 mph - N/A   Mostly Cloudy
11:53 PM 69.1°F 64.0°F 84% 30.11 in 10.0 miles NNW 6.9 mph - N/A   Mostly Cloudy